Location: Unspecified
(0.0000°N, 0.0000°E)
Time: 17:22:25
(UTC+00:00)

BEESAT - Pass Details

Date: 03 June 2019
Orbit: 701 x 709 km, 98.6° (Epoch: 16 June)

Event Time Altitude Azimuth Distance (km) Brightness Sun altitude
Rises 04:55:27 0° 179° (S) 3,098 ? -14.5°
Reaches altitude 10° 04:57:47 10° 185° (S) 2,178 ? -13.9°
Maximum altitude 05:02:20 45° 257° (WSW) 955 ? -12.9°
Drops below altitude 10° 05:06:53 10° 330° (NNW) 2,172 ? -11.8°
Sets 05:09:13 0° 336° (NNW) 3,089 ? -11.3°
